Olympia, WA

3:51 PM PDT on September 26, 2017 (GMT -0700)
Olympia

Weather History for KOLM - October, 2012

Change the Weather History Date:

Wednesday, October 3, 2012

  Actual Average Record
Temperature  
Mean Temperature 50 °F 54 °F  
Max Temperature 68 °F 65 °F 83 °F (1993)
Min Temperature 31 °F 42 °F 28 °F (1989)
Degree Days  
Heating Degree Days 15 11  
Month to date heating degree days 31 32  
Since 1 July heating degree days 376 372  
Cooling Degree Days 0 0  
Month to date cooling degree days 0 0  
Year to date cooling degree days 82 106  
Moisture  
Dew Point 34 °F    
Average Humidity 63    
Maximum Humidity 100    
Minimum Humidity 26    
Precipitation  
Precipitation 0.00 in 0.09 in 1.02 in (1997)
Month to date precipitation 0.00 0.26  
Year to date precipitation 32.63 29.57  
Sea Level Pressure  
Sea Level Pressure 30.31 in    
Wind  
Wind Speed 5 mph (NE)    
Max Wind Speed 17 mph    
Max Gust Speed 23 mph    
Visibility 9 miles    
Events      
T = Trace of Precipitation, MM = Missing Value Source: NWS Daily Summary

Daily Weather History Graph

Daily Weather History Graph

Search for Another Location

Airport or City:

Trip Planner

Search our weather history database for the weather conditions in past years. The results will help you decide how hot, cold, wet, or windy it might be!

Date:

Astronomy

Oct. 03, 2012 Rise Set
Actual Time 7:13 AM PDT 6:46 PM PDT
Civil Twilight 6:43 AM PDT 7:16 PM PDT
Nautical Twilight 6:08 AM PDT 7:51 PM PDT
Astronomical Twilight 5:32 AM PDT 8:27 PM PDT
Moon 8:25 PM PDT (10/3) 10:58 AM PDT (10/3)
Length of Visible Light 12h 32m
Length of Day
11h 32m
Waning Gibbous, 88% of the Moon is Illuminated
Oct 3
Waning Gibbous
Oct 8
Last Quarter
Oct 15
New
Oct 21
First Quarter
Oct 29
Full

Hourly Weather History & Observations

Time (PDT) Temp. Dew Point Humidity Pressure Visibility Wind Dir Wind Speed Gust Speed Precip Events Conditions
12:54 AM 50.0 °F 39.9 °F 68% 30.29 in 10.0 mi ENE 4.6 mph - N/A   Clear
1:54 AM 48.9 °F 39.9 °F 71% 30.29 in 10.0 mi ENE 3.5 mph - N/A   Clear
2:54 AM 46.0 °F 39.0 °F 76% 30.29 in 10.0 mi Calm Calm - N/A   Clear
3:54 AM 39.9 °F 37.0 °F 89% 30.31 in 10.0 mi Calm Calm - N/A   Clear
4:54 AM 37.0 °F 35.1 °F 93% 30.32 in 10.0 mi Calm Calm - N/A   Clear
5:54 AM 37.0 °F 37.0 °F 100% 30.33 in 10.0 mi Calm Calm - N/A   Clear
6:13 AM 33.8 °F 33.8 °F 100% 30.33 in 1.8 mi Calm Calm - N/A   Clear
6:22 AM 35.6 °F 35.6 °F 100% 30.33 in 3.0 mi Calm Calm - N/A   Clear
6:54 AM 34.0 °F 33.1 °F 96% 30.35 in 10.0 mi Calm Calm - N/A   Clear
7:05 AM 33.8 °F 33.8 °F 100% 30.35 in 2.5 mi Calm Calm - N/A   Clear
7:13 AM 35.6 °F 33.8 °F 93% 30.35 in 8.0 mi Calm Calm - N/A   Clear
7:54 AM 32.0 °F 30.2 °F 93% 30.35 in 4.0 mi Calm Calm - N/A   Clear
8:54 AM 46.9 °F 39.9 °F 77% 30.36 in 10.0 mi Calm Calm - N/A   Clear
9:54 AM 51.1 °F 37.9 °F 61% 30.36 in 10.0 mi NNE 4.6 mph - N/A   Clear
10:54 AM 57.0 °F 37.9 °F 49% 30.35 in 10.0 mi ENE 8.1 mph - N/A   Clear
11:54 AM 61.0 °F 30.9 °F 32% 30.35 in 10.0 mi ENE 12.7 mph 21.9 mph N/A   Clear
12:54 PM 63.0 °F 30.0 °F 29% 30.33 in 10.0 mi ENE 11.5 mph 21.9 mph N/A   Clear
1:54 PM 64.0 °F 28.9 °F 27% 30.31 in 10.0 mi NE 12.7 mph - N/A   Clear
2:54 PM 66.0 °F 30.9 °F 27% 30.29 in 10.0 mi NE 11.5 mph 21.9 mph N/A   Clear
3:54 PM 66.9 °F 32.0 °F 27% 30.27 in 10.0 mi NE 10.4 mph - N/A   Clear
4:54 PM 66.0 °F 30.0 °F 26% 30.26 in 10.0 mi NNE 13.8 mph 20.7 mph N/A   Clear
5:54 PM 63.0 °F 28.0 °F 27% 30.26 in 10.0 mi NE 11.5 mph 21.9 mph N/A   Clear
6:54 PM 59.0 °F 28.0 °F 31% 30.26 in 10.0 mi NE 8.1 mph - N/A   Clear
7:54 PM 55.0 °F 30.0 °F 38% 30.26 in 10.0 mi NE 4.6 mph - N/A   Clear
8:54 PM 44.1 °F 33.1 °F 65% 30.27 in 10.0 mi Calm Calm - N/A   Clear
9:54 PM 39.9 °F 30.9 °F 70% 30.27 in 10.0 mi Calm Calm - N/A   Clear
10:54 PM 39.9 °F 32.0 °F 73% 30.27 in 10.0 mi Calm Calm - N/A   Clear
11:54 PM 37.0 °F 32.0 °F 82% 30.27 in 7.0 mi Calm Calm - N/A   Clear